Weather History for Cape Girardeau, MO

Change the Weather History Date:

Sunday, December 2, 2012

  Actual Average Record
Temperature  
Mean Temperature 64 °F 40 °F  
Max Temperature 67 °F 49 °F 76 °F (1982)
Min Temperature 60 °F 31 °F 13 °F (1960)
Degree Days  
Heating Degree Days 1 25  
Month to date heating degree days 8 50  
Since 1 July heating degree days 947 901  
Cooling Degree Days 0 0  
Month to date cooling degree days 0 0  
Year to date cooling degree days 1784 1453  
Growing Degree Days 13 (Base 50)    
Moisture  
Dew Point 57 °F    
Average Humidity 80    
Maximum Humidity 90    
Minimum Humidity 69    
Precipitation  
Precipitation 0.04 in 0.15 in 1.83 in (1967)
Month to date precipitation 0.04 0.30  
Year to date precipitation 25.32 42.86  
Sea Level Pressure  
Sea Level Pressure 30.08 in    
Wind  
Wind Speed 13 mph (SSW)    
Max Wind Speed 21 mph    
Max Gust Speed 29 mph    
Visibility 10 miles    
Events Rain    
T = Trace of Precipitation, MM = Missing Value Source: NWS Daily Summary

Daily Weather History Graph

Daily Weather History Graph

Search for Another Location

Airport:

Trip Planner

Search our weather history database for the weather conditions in past years. The results will help you decide how hot, cold, wet, or windy it might be!

Date:

Astronomy

Dec. 02, 2012 Rise Set
Actual Time 6:54 AM CST 4:40 PM CST
Civil Twilight 6:26 AM CST 5:09 PM CST
Nautical Twilight 5:53 AM CST 5:41 PM CST
Astronomical Twilight 5:22 AM CST 6:13 PM CST
Moon 8:26 PM CST (12/2) 9:46 AM CST (12/2)
Length of Visible Light 10h 43m
Length of Day
9h 46m
Waning Gibbous, 85% of the Moon is Illuminated
Dec 2
Waning Gibbous
Dec 6
Last Quarter
Dec 13
New
Dec 19
First Quarter
Dec 28
Full

Hourly Weather History & Observations

Time (CST) Temp. Dew Point Humidity Pressure Visibility Wind Dir Wind Speed Gust Speed Precip Events Conditions
12:53 AM 61.0 °F 50.0 °F 67% 30.07 in 10.0 mi South 13.8 mph - N/A   Overcast
1:53 AM 61.0 °F 50.0 °F 67% 30.07 in 10.0 mi South 12.7 mph 19.6 mph N/A   Overcast
2:53 AM 60.1 °F 50.0 °F 69% 30.06 in 10.0 mi SSW 15.0 mph 24.2 mph N/A   Overcast
3:53 AM 60.1 °F 50.0 °F 69% 30.05 in 10.0 mi SSW 16.1 mph 24.2 mph N/A   Mostly Cloudy
4:11 AM 60.8 °F 51.8 °F 72% 30.06 in 10.0 mi SSW 16.1 mph 24.2 mph N/A   Overcast
4:53 AM 61.0 °F 51.1 °F 70% 30.06 in 10.0 mi SSW 17.3 mph 25.3 mph N/A   Overcast
5:53 AM 61.0 °F 53.1 °F 75% 30.05 in 10.0 mi SSW 17.3 mph 27.6 mph N/A   Overcast
6:53 AM 61.0 °F 54.0 °F 78% 30.08 in 9.0 mi SSW 15.0 mph 24.2 mph 0.00 in Rain Light Rain
7:53 AM 60.1 °F 55.9 °F 86% 30.10 in 10.0 mi SSW 13.8 mph - 0.04 in   Overcast
8:53 AM 61.0 °F 57.0 °F 87% 30.11 in 10.0 mi SSW 15.0 mph - N/A   Overcast
9:41 AM 62.6 °F 57.2 °F 82% 30.12 in 10.0 mi SSW 13.8 mph - N/A   Overcast
9:53 AM 62.1 °F 57.9 °F 86% 30.12 in 10.0 mi SSW 16.1 mph - N/A   Overcast
10:53 AM 62.1 °F 57.9 °F 86% 30.12 in 10.0 mi SSW 9.2 mph - N/A   Overcast
11:53 AM 63.0 °F 59.0 °F 87% 30.09 in 9.0 mi SSW 8.1 mph - N/A   Overcast
12:53 PM 64.0 °F 60.1 °F 87% 30.08 in 8.0 mi SSW 11.5 mph - N/A   Overcast
1:53 PM 66.0 °F 61.0 °F 84% 30.05 in 9.0 mi SSW 12.7 mph - N/A   Overcast
2:53 PM 66.0 °F 61.0 °F 84% 30.04 in 9.0 mi SSW 17.3 mph - N/A   Overcast
3:03 PM 66.2 °F 60.8 °F 83% 30.05 in 9.0 mi SSW 15.0 mph - N/A   Overcast
4:53 PM 64.9 °F 60.1 °F 84% 30.06 in 10.0 mi SSW 8.1 mph - N/A   Mostly Cloudy
5:53 PM 64.9 °F 60.1 °F 84% 30.07 in 10.0 mi SSW 8.1 mph - N/A   Overcast
6:53 PM 64.9 °F 60.1 °F 84% 30.07 in 10.0 mi SSW 6.9 mph - N/A   Overcast
7:53 PM 64.9 °F 60.1 °F 84% 30.07 in 10.0 mi South 13.8 mph - N/A   Mostly Cloudy
8:53 PM 64.0 °F 60.1 °F 87% 30.08 in 10.0 mi South 10.4 mph - N/A   Overcast
9:53 PM 64.0 °F 59.0 °F 84% 30.08 in 10.0 mi South 12.7 mph 21.9 mph N/A   Overcast
10:53 PM 63.0 °F 59.0 °F 87% 30.07 in 10.0 mi South 12.7 mph 20.7 mph N/A   Mostly Cloudy
11:53 PM 63.0 °F 59.0 °F 87% 30.08 in 10.0 mi SSW 17.3 mph - N/A   Partly Cloudy